#timestamp,LO_Frequency,Hit,StdDev 
1709438415.1,286046979.4,Y
1709438435.9,286046992.4,P
1709438455.7,286046990.8,P
1709438475.5,286046994.2,N
1709438495.4,286046994.3,N
1709438515.2,286046990.4,Y
1709438535.0,286047000.8,P
1709438535.9,286047000.8,N
1709438555.8,286047000.5,N
1709438575.6,286046999.7,N
1709438595.5,286047002.8,N
1709438615.3,286047003.2,N
1709438635.1,286047005.3,N
1709438655.9,286047004.8,N
1709438675.7,286047004.6,N
1709438695.5,286047006.1,N
1709438715.4,286047008.6,N
1709438735.2,286047008.2,N
1709438755.1,286047006.2,N
1709438756.0,286047006.2,N
1709438775.8,286047013.8,Y
1709438795.6,286047013.1,P
1709438815.5,286047014.5,N
1709438835.3,286047014.6,N
1709438855.2,286047016.0,Y
1709438875.9,286047001.9,P
1709438895.7,286046999.7,N
1709438915.6,286046998.8,N
1709438935.4,286046999.3,N
1709438955.2,286046999.3,N
1709438975.1,286046997.5,N
1709438976.0,286046997.5,N
1709438995.8,286046995.9,N
1709439015.7,286046997.5,N
1709439035.5,286046991.7,N
1709439055.3,286046991.3,N
1709439075.2,286046990.4,N
1709439095.9,286046986.9,N
1709439145.8,286046995.6,E
1709439155.7,286046998.7,N
1709439175.5,286047010.3,P
1709439195.4,286047015.1,N
1709439215.2,286047016.9,N
1709439235.0,286047017.6,N
1709439235.9,286047017.6,N
1709439255.8,286047021.1,Y
1709439275.6,286047012.8,P
1709439295.5,286047018.6,P
1709439315.3,286047023.4,P
1709439335.1,286047023.8,Y
1709439355.9,286047012.3,P
1709439375.7,286047017.2,P
1709439395.5,286047015.4,P
1709439415.4,286047012.3,Y
1709439435.2,286046994.7,P
1709439455.1,286046991.5,N
1709439456.0,286046991.5,N
1709439475.8,286046985.3,N
1709439495.6,286046982.2,N
1709439515.5,286046981.7,N
1709439535.3,286046976.1,N
1709439555.2,286046973.4,N
1709439575.9,286046973.3,N
1709439595.7,286046970.6,N
1709439615.6,286046969.1,N
1709439635.4,286046964.5,N
1709439655.2,286046962.0,N
1709439675.1,286046960.2,N
1709439676.0,286046960.2,N
1709439695.8,286046964.4,N
1709439715.7,286046959.3,N
1709439735.5,286046955.7,Y
1709439755.3,286046974.3,P
1709439775.2,286046971.9,P
1709439795.0,286046971.5,P
1709439795.9,286046971.5,Y
1709439815.8,286047000.6,P
1709439835.6,286047005.5,N
1709439855.4,286047001.8,N
1709439875.3,286046999.9,N
1709439895.1,286047003.2,N
1709439915.8,286047006.6,N
1709439935.7,286047005.0,N
1709439955.5,286047001.3,N
1709439975.4,286047000.3,N
1709439995.2,286046999.9,N
1709440015.0,286047001.6,N
1709440015.9,286047001.6,N
1709440035.8,286047003.6,N
1709440055.6,286047003.8,N
1709440075.5,286047001.8,N
1709440095.3,286047001.9,N
1709440115.1,286046999.8,N
1709440135.9,286047000.2,N
1709440155.7,286047000.8,N
1709440175.5,286047000.4,N
1709440195.4,286047002.5,N
1709440215.2,286046998.3,N
1709440235.1,286046999.1,N
1709440236.0,286046999.1,N
1709440255.8,286046997.2,N
1709440275.6,286046997.6,N
1709440295.5,286046993.3,N
1709440315.3,286046994.0,N
1709440335.1,286046994.5,N
1709440355.9,286046994.8,N
1709440375.7,286046991.8,N
1709440395.6,286046992.8,N
1709440415.4,286046993.1,N
1709440435.2,286046992.7,N
1709440455.1,286046991.6,N
1709440456.0,286046991.6,N
1709440475.8,286046989.4,N
1709440495.6,286046989.0,N
1709440515.5,286046990.2,N
1709440535.3,286046990.0,N
1709440555.2,286046985.8,Y
1709440575.9,286046989.5,P
1709440595.7,286046985.3,P
1709440615.6,286046986.4,N
1709440635.4,286046985.0,Y
1709440655.3,286046989.2,P
1709440675.1,286046989.5,P
1709440695.8,286046990.4,P
1709440715.7,286046994.7,Y
1709440735.5,286047004.3,P
1709440755.4,286047000.1,N
1709440775.2,286047001.3,N
1709440795.0,286047003.4,N
1709440795.9,286047003.4,N
1709440815.8,286047003.2,N
1709440835.6,286047001.8,N
1709440855.5,286047002.1,N
1709440875.3,286047002.9,N
1709440895.1,286047005.1,N
1709440915.9,286047004.7,N
1709440935.7,286047007.0,N
1709440955.6,286047006.1,N
1709440975.4,286047008.4,N
1709440995.2,286047006.8,N
1709441015.1,286047006.5,N
1709441016.0,286047006.5,N
1709441035.8,286047006.5,N
1709441055.7,286047006.9,N
1709441075.5,286047006.1,N
1709441095.3,286047009.6,N
1709441115.2,286047005.3,N
1709441135.9,286047013.7,Y
1709441155.7,286047010.7,P
1709441175.6,286047009.4,N
1709441195.4,286047013.9,P
1709441215.3,286047009.3,N
1709441235.1,286047011.8,Y
1709441236.0,286047011.8,P
1709441255.8,286046999.9,N
1709441275.7,286047002.0,N
1709441295.5,286047006.8,N
1709441315.3,286047005.5,N
1709441335.2,286047002.3,N
1709441355.0,286047002.4,N
1709441355.9,286047002.4,N
1709441375.8,286047003.6,N
1709441395.6,286047003.0,N
1709441415.4,286047004.2,N
1709441435.3,286047001.6,N
1709441455.1,286047001.6,N
1709441475.9,286047003.4,N
1709441495.7,286047004.0,N
1709441515.5,286047004.2,N
1709441535.4,286047002.4,N
1709441555.2,286047003.9,N
1709441575.0,286047005.7,N
1709441575.9,286047005.7,N
1709441595.8,286047001.5,N
1709441615.6,286047002.1,N
1709441635.5,286047002.4,N
1709441655.3,286047001.4,N
1709441675.1,286047000.1,N
1709441695.9,286046999.7,N
1709441715.7,286047004.4,N
1709441735.5,286047003.2,N
1709441755.4,286047004.8,N
1709441775.2,286047005.0,N
1709441795.1,286047004.2,N
1709441796.0,286047004.2,N
1709441815.8,286047002.5,N
1709441835.6,286047000.1,N
1709441855.5,286046999.8,N
1709441875.3,286047002.3,N
1709441895.2,286047001.2,N
1709441915.9,286046999.9,N
1709441935.7,286046999.2,N
1709441955.6,286047005.3,N
1709441975.4,286047010.5,Y
1709441995.3,286047007.8,P
